When you browse on this site, cookies collect data to enhance your experience and personalize the content and advertising you see.
Visit our Privacy Policy to learn more. By continuing to use the site, you agree to this use of cookies and data.

Hourly Weather Mansa Konko

Today, 10 August, Monday

Time Temperature Precipitation Wind Pressure Humidity
00:00 +26°C° 0.1 mm 2 mps 759 mmHg 94%
01:00 +26°C° 0.1 mm 2 mps 758 mmHg 95%
02:00 +26°C° 0.1 mm 1 mps 758 mmHg 96%
03:00 +26°C° 0.1 mm 1 mps 758 mmHg 95%
04:00 +26°C° 0.1 mm 1 mps 758 mmHg 95%
05:00 +26°C° 0.1 mm 1 mps 758 mmHg 94%
06:00 +27°C° 0.4 mm 1 mps 758 mmHg 92%
07:00 +27°C° 0.4 mm 1 mps 758 mmHg 90%
08:00 +28°C° 0.4 mm 1 mps 759 mmHg 88%
09:00 +30°C° 1 mm 1 mps 759 mmHg 81%
10:00 +31°C° 1 mm 2 mps 758 mmHg 74%
11:00 +34°C° 1 mm 2 mps 758 mmHg 67%
12:00 +32°C° 3.9 mm 2 mps 758 mmHg 72%
13:00 +31°C° 3.9 mm 3 mps 757 mmHg 77%
14:00 +30°C° 3.9 mm 3 mps 756 mmHg 82%
15:00 +29°C° 1.7 mm 4 mps 756 mmHg 84%
16:00 +29°C° 1.7 mm 4 mps 756 mmHg 86%
17:00 +28°C° 1.7 mm 5 mps 756 mmHg 88%
18:00 +27°C° 0 mm 4 mps 757 mmHg 90%
19:00 +27°C° 0 mm 4 mps 757 mmHg 91%
20:00 +27°C° 0 mm 4 mps 757 mmHg 93%
21:00 +27°C° 0 mm 3 mps 758 mmHg 93%
22:00 +27°C° 0 mm 3 mps 758 mmHg 94%
23:00 +26°C° 0 mm 2 mps 758 mmHg 94%

Tomorrow, 11 August, Tuesday

Time Temperature Precipitation Wind Pressure Humidity
00:00 +26°C° 0 mm 2 mps 758 mmHg 94%
01:00 +26°C° 0 mm 2 mps 757 mmHg 94%
02:00 +26°C° 0 mm 2 mps 757 mmHg 94%
03:00 +26°C° 0.1 mm 2 mps 757 mmHg 94%
04:00 +26°C° 0.1 mm 1 mps 757 mmHg 94%
05:00 +26°C° 0.1 mm 1 mps 757 mmHg 94%
06:00 +27°C° 0 mm 1 mps 758 mmHg 90%
07:00 +28°C° 0 mm 1 mps 758 mmHg 86%
08:00 +28°C° 0 mm 2 mps 758 mmHg 82%
09:00 +30°C° 0 mm 2 mps 758 mmHg 77%
10:00 +31°C° 0 mm 2 mps 758 mmHg 71%
11:00 +32°C° 0 mm 2 mps 757 mmHg 65%
12:00 +34°C° 0 mm 2 mps 757 mmHg 63%
13:00 +35°C° 0 mm 2 mps 756 mmHg 61%
14:00 +35°C° 0 mm 2 mps 756 mmHg 58%
15:00 +34°C° 0.4 mm 3 mps 755 mmHg 63%
16:00 +33°C° 0.4 mm 3 mps 755 mmHg 69%
17:00 +32°C° 0.4 mm 4 mps 755 mmHg 74%
18:00 +30°C° 0.2 mm 4 mps 756 mmHg 78%
19:00 +29°C° 0.2 mm 3 mps 756 mmHg 82%
20:00 +27°C° 0.2 mm 3 mps 757 mmHg 86%
21:00 +27°C° 0.1 mm 3 mps 757 mmHg 87%
22:00 +27°C° 0.1 mm 2 mps 758 mmHg 88%
23:00 +26°C° 0.1 mm 2 mps 758 mmHg 90%

Day after tomorrow, 12 August, Wednesday

Time Temperature Precipitation Wind Pressure Humidity
00:00 +26°C° 0 mm 2 mps 758 mmHg 90%
01:00 +26°C° 0 mm 2 mps 757 mmHg 91%
02:00 +26°C° 0 mm 1 mps 757 mmHg 92%
03:00 +25°C° 0 mm 2 mps 757 mmHg 93%
04:00 +25°C° 0 mm 2 mps 757 mmHg 93%
05:00 +25°C° 0 mm 2 mps 757 mmHg 94%
06:00 +26°C° 0 mm 2 mps 757 mmHg 90%
07:00 +27°C° 0 mm 2 mps 757 mmHg 86%
08:00 +28°C° 0 mm 2 mps 758 mmHg 82%
09:00 +29°C° 0 mm 2 mps 758 mmHg 77%
10:00 +30°C° 0 mm 2 mps 758 mmHg 72%
11:00 +31°C° 0 mm 2 mps 758 mmHg 67%
12:00 +32°C° 0 mm 2 mps 757 mmHg 64%
13:00 +34°C° 0 mm 3 mps 757 mmHg 61%
14:00 +34°C° 0 mm 3 mps 756 mmHg 58%
15:00 +34°C° 0 mm 3 mps 756 mmHg 61%
16:00 +33°C° 0 mm 3 mps 756 mmHg 64%
17:00 +33°C° 0 mm 3 mps 756 mmHg 67%
18:00 +31°C° 0 mm 3 mps 756 mmHg 72%
19:00 +30°C° 0 mm 2 mps 757 mmHg 76%
20:00 +29°C° 0 mm 2 mps 758 mmHg 81%
21:00 +28°C° 0.1 mm 2 mps 758 mmHg 83%
22:00 +27°C° 0.1 mm 2 mps 758 mmHg 85%
23:00 +27°C° 0.1 mm 2 mps 758 mmHg 87%

13 August, Thursday

Time Temperature Precipitation Wind Pressure Humidity
00:00 +27°C° 0 mm 2 mps 758 mmHg 88%
01:00 +26°C° 0 mm 2 mps 758 mmHg 89%
02:00 +26°C° 0 mm 2 mps 757 mmHg 91%
03:00 +26°C° 0 mm 2 mps 757 mmHg 91%
04:00 +26°C° 0 mm 1 mps 757 mmHg 92%
05:00 +26°C° 0 mm 1 mps 758 mmHg 93%
06:00 +27°C° 0 mm 1 mps 758 mmHg 89%
07:00 +28°C° 0 mm 1 mps 758 mmHg 86%
08:00 +28°C° 0 mm 1 mps 759 mmHg 82%
09:00 +30°C° 0.5 mm 1 mps 759 mmHg 78%
10:00 +31°C° 0.5 mm 1 mps 759 mmHg 74%
11:00 +32°C° 0.5 mm 1 mps 758 mmHg 70%
12:00 +31°C° 2.7 mm 2 mps 758 mmHg 72%
13:00 +31°C° 2.7 mm 2 mps 757 mmHg 74%
14:00 +31°C° 2.7 mm 3 mps 757 mmHg 76%
15:00 +30°C° 3.1 mm 3 mps 757 mmHg 80%
16:00 +29°C° 3.1 mm 4 mps 757 mmHg 83%
17:00 +28°C° 3.1 mm 4 mps 757 mmHg 86%
18:00 +28°C° 1.3 mm 4 mps 758 mmHg 89%
19:00 +27°C° 1.3 mm 3 mps 758 mmHg 91%
20:00 +27°C° 1.3 mm 3 mps 759 mmHg 93%
21:00 +27°C° 0.1 mm 2 mps 759 mmHg 94%
22:00 +26°C° 0.1 mm 2 mps 759 mmHg 95%
23:00 +26°C° 0.1 mm 2 mps 760 mmHg 95%

14 August, Friday

Time Temperature Precipitation Wind Pressure Humidity
00:00 +26°C° 0 mm 2 mps 759 mmHg 95%
01:00 +26°C° 0 mm 2 mps 759 mmHg 96%
02:00 +26°C° 0 mm 2 mps 758 mmHg 96%
03:00 +26°C° 0 mm 1 mps 758 mmHg 96%
04:00 +26°C° 0 mm 1 mps 758 mmHg 96%
05:00 +26°C° 0 mm 1 mps 758 mmHg 96%
06:00 +26°C° 0 mm 2 mps 759 mmHg 93%
07:00 +27°C° 0 mm 2 mps 759 mmHg 90%
08:00 +28°C° 0 mm 2 mps 759 mmHg 87%
09:00 +29°C° 0.6 mm 2 mps 759 mmHg 83%
10:00 +30°C° 0.6 mm 2 mps 759 mmHg 79%
11:00 +31°C° 0.6 mm 2 mps 759 mmHg 75%
12:00 +31°C° 2.6 mm 2 mps 758 mmHg 76%
13:00 +31°C° 2.6 mm 2 mps 757 mmHg 77%
14:00 +31°C° 2.6 mm 2 mps 757 mmHg 77%
15:00 +30°C° 4 mm 3 mps 757 mmHg 80%
16:00 +30°C° 4 mm 3 mps 757 mmHg 83%
17:00 +29°C° 4 mm 4 mps 756 mmHg 86%
18:00 +28°C° 6 mm 4 mps 757 mmHg 89%
19:00 +27°C° 6 mm 3 mps 757 mmHg 91%
20:00 +27°C° 6 mm 3 mps 758 mmHg 94%
21:00 +27°C° 2.3 mm 3 mps 758 mmHg 94%
22:00 +27°C° 2.3 mm 3 mps 758 mmHg 94%
23:00 +26°C° 2.3 mm 2 mps 758 mmHg 95%

15 August, Saturday

Time Temperature Precipitation Wind Pressure Humidity
00:00 +26°C° 0 mm 2 mps 758 mmHg 95%
01:00 +26°C° 0 mm 2 mps 757 mmHg 95%
02:00 +26°C° 0 mm 2 mps 757 mmHg 95%
03:00 +26°C° 0 mm 2 mps 757 mmHg 95%
04:00 +26°C° 0 mm 1 mps 757 mmHg 95%
05:00 +26°C° 0 mm 1 mps 757 mmHg 95%
06:00 +27°C° 0 mm 1 mps 757 mmHg 92%
07:00 +28°C° 0 mm 1 mps 757 mmHg 89%
08:00 +29°C° 0 mm 2 mps 757 mmHg 86%
09:00 +30°C° 0 mm 2 mps 757 mmHg 80%
10:00 +31°C° 0 mm 2 mps 757 mmHg 74%
11:00 +34°C° 0 mm 2 mps 757 mmHg 68%
12:00 +33°C° 0.3 mm 1 mps 757 mmHg 67%
13:00 +33°C° 0.3 mm 1 mps 756 mmHg 66%
14:00 +34°C° 0.3 mm 1 mps 755 mmHg 64%
15:00 +33°C° 0.8 mm 1 mps 755 mmHg 67%
16:00 +33°C° 0.8 mm 1 mps 755 mmHg 70%
17:00 +33°C° 0.8 mm 1 mps 755 mmHg 73%
18:00 +31°C° 0.1 mm 1 mps 755 mmHg 78%
19:00 +30°C° 0.1 mm 2 mps 755 mmHg 83%
20:00 +28°C° 0.1 mm 3 mps 756 mmHg 88%
21:00 +28°C° 0.1 mm 3 mps 756 mmHg 90%
22:00 +28°C° 0.1 mm 2 mps 756 mmHg 91%
23:00 +27°C° 0.1 mm 2 mps 757 mmHg 92%
Show more